Year,Month,Day,Hour,Minute,Value (Times are PST for temperature in C)
2014,08,09,00,00,13.00
2014,08,09,00,01,13.00
2014,08,09,00,02,12.90
2014,08,09,00,03,12.90
2014,08,09,00,04,12.90
2014,08,09,00,05,12.90
2014,08,09,00,06,12.90
2014,08,09,00,07,12.90
2014,08,09,00,08,12.80
2014,08,09,00,09,12.80
2014,08,09,00,10,12.80
2014,08,09,00,11,12.80
2014,08,09,00,12,12.80
2014,08,09,00,13,12.80
2014,08,09,00,14,12.70
2014,08,09,00,15,12.70
2014,08,09,00,16,12.70
2014,08,09,00,17,12.70
2014,08,09,00,18,12.70
2014,08,09,00,19,12.70
2014,08,09,00,20,12.70
2014,08,09,00,21,12.70
2014,08,09,00,22,12.80
2014,08,09,00,23,12.80
2014,08,09,00,24,12.80
2014,08,09,00,25,12.80
2014,08,09,00,26,12.70
2014,08,09,00,27,12.70
2014,08,09,00,28,12.70
2014,08,09,00,29,12.70
2014,08,09,00,30,12.60
2014,08,09,00,31,12.60
2014,08,09,00,32,12.60
2014,08,09,00,33,12.50
2014,08,09,00,34,12.50
2014,08,09,00,35,12.40
2014,08,09,00,36,12.40
2014,08,09,00,37,12.30
2014,08,09,00,38,12.30
2014,08,09,00,39,12.30
2014,08,09,00,40,12.30
2014,08,09,00,41,12.20
2014,08,09,00,42,12.20
2014,08,09,00,43,12.20
2014,08,09,00,44,12.20
2014,08,09,00,45,12.20
2014,08,09,00,46,12.20
2014,08,09,00,47,12.20
2014,08,09,00,48,12.20
2014,08,09,00,49,12.20
2014,08,09,00,50,12.20
2014,08,09,00,51,12.20
2014,08,09,00,52,12.20
2014,08,09,00,53,12.20
2014,08,09,00,54,12.20
2014,08,09,00,55,12.20
2014,08,09,00,56,12.20
2014,08,09,00,57,12.30
2014,08,09,00,58,12.30
2014,08,09,00,59,12.30
2014,08,09,01,00,12.30
2014,08,09,01,01,12.30
2014,08,09,01,02,12.30
2014,08,09,01,03,12.30
2014,08,09,01,04,12.30
2014,08,09,01,05,12.30
2014,08,09,01,06,12.20
2014,08,09,01,07,12.20
2014,08,09,01,08,12.20
2014,08,09,01,09,12.10
2014,08,09,01,10,12.10
2014,08,09,01,11,12.10
2014,08,09,01,12,12.10
2014,08,09,01,13,12.00
2014,08,09,01,14,12.00
2014,08,09,01,15,12.00
2014,08,09,01,16,12.00
2014,08,09,01,17,12.10
2014,08,09,01,18,12.10
2014,08,09,01,19,12.10
2014,08,09,01,20,12.10
2014,08,09,01,21,12.10
2014,08,09,01,22,12.10
2014,08,09,01,23,12.10
2014,08,09,01,24,12.10
2014,08,09,01,25,12.00
2014,08,09,01,26,12.00
2014,08,09,01,27,11.90
2014,08,09,01,28,11.90
2014,08,09,01,29,11.90
2014,08,09,01,30,11.90
2014,08,09,01,31,11.90
2014,08,09,01,32,11.90
2014,08,09,01,33,12.00
2014,08,09,01,34,12.00
2014,08,09,01,35,12.00
2014,08,09,01,36,12.00
2014,08,09,01,37,12.00
2014,08,09,01,38,11.90
2014,08,09,01,39,11.90
2014,08,09,01,40,11.90
2014,08,09,01,41,11.80
2014,08,09,01,42,11.80
2014,08,09,01,43,11.80
2014,08,09,01,44,11.80
2014,08,09,01,45,11.80
2014,08,09,01,46,11.80
2014,08,09,01,47,11.80
2014,08,09,01,48,11.80
2014,08,09,01,49,11.80
2014,08,09,01,50,11.70
2014,08,09,01,51,11.70
2014,08,09,01,52,11.70
2014,08,09,01,53,11.70
2014,08,09,01,54,11.60
2014,08,09,01,55,11.60
2014,08,09,01,56,11.60
2014,08,09,01,57,11.60
2014,08,09,01,58,11.70
2014,08,09,01,59,11.70
2014,08,09,02,00,11.70
2014,08,09,02,01,11.70
2014,08,09,02,02,11.70
2014,08,09,02,03,11.70
2014,08,09,02,04,11.70
2014,08,09,02,05,11.70
2014,08,09,02,06,11.70
2014,08,09,02,07,11.70
2014,08,09,02,08,11.70
2014,08,09,02,09,11.70
2014,08,09,02,10,11.70
2014,08,09,02,11,11.70
2014,08,09,02,12,11.70
2014,08,09,02,13,11.70
2014,08,09,02,14,11.70
2014,08,09,02,15,11.70
2014,08,09,02,16,11.70
2014,08,09,02,17,11.60
2014,08,09,02,18,11.60
2014,08,09,02,19,11.60
2014,08,09,02,20,11.50
2014,08,09,02,21,11.50
2014,08,09,02,22,11.50
2014,08,09,02,23,11.50
2014,08,09,02,24,11.50
2014,08,09,02,25,11.50
2014,08,09,02,26,11.50
2014,08,09,02,27,11.50
2014,08,09,02,28,11.40
2014,08,09,02,29,11.40
2014,08,09,02,30,11.40
2014,08,09,02,31,11.40
2014,08,09,02,32,11.30
2014,08,09,02,33,11.30
2014,08,09,02,34,11.30
2014,08,09,02,35,11.20
2014,08,09,02,36,11.20
2014,08,09,02,37,11.20
2014,08,09,02,38,11.10
2014,08,09,02,39,11.10
2014,08,09,02,40,11.00
2014,08,09,02,41,11.00
2014,08,09,02,42,10.90
2014,08,09,02,43,10.90
2014,08,09,02,44,10.90
2014,08,09,02,45,10.90
2014,08,09,02,46,10.90
2014,08,09,02,47,10.90
2014,08,09,02,48,10.90
2014,08,09,02,49,10.90
2014,08,09,02,50,10.90
2014,08,09,02,51,10.90
2014,08,09,02,52,10.90
2014,08,09,02,53,10.90
2014,08,09,02,54,11.00
2014,08,09,02,55,11.00
2014,08,09,02,56,11.00
2014,08,09,02,57,11.00
2014,08,09,02,58,11.00
2014,08,09,02,59,11.00
2014,08,09,03,00,11.00
2014,08,09,03,01,11.00
2014,08,09,03,02,11.00
2014,08,09,03,03,11.10
2014,08,09,03,04,11.10
2014,08,09,03,05,11.10
2014,08,09,03,06,11.10
2014,08,09,03,07,11.10
2014,08,09,03,08,11.10
2014,08,09,03,09,11.10
2014,08,09,03,10,11.10
2014,08,09,03,11,11.10
2014,08,09,03,12,11.10
2014,08,09,03,13,11.10
2014,08,09,03,14,11.10
2014,08,09,03,15,11.10
2014,08,09,03,16,11.10
2014,08,09,03,17,11.10
2014,08,09,03,18,11.10
2014,08,09,03,19,11.10
2014,08,09,03,20,11.10
2014,08,09,03,21,11.10
2014,08,09,03,22,11.00
2014,08,09,03,23,11.00
2014,08,09,03,24,10.90
2014,08,09,03,25,10.90
2014,08,09,03,26,10.90
2014,08,09,03,27,10.90
2014,08,09,03,28,10.90
2014,08,09,03,29,10.90
2014,08,09,03,30,10.90
2014,08,09,03,31,10.90
2014,08,09,03,32,10.90
2014,08,09,03,33,10.90
2014,08,09,03,34,10.90
2014,08,09,03,35,10.90
2014,08,09,03,36,10.90
2014,08,09,03,37,10.90
2014,08,09,03,38,10.90
2014,08,09,03,39,10.90
2014,08,09,03,40,10.90
2014,08,09,03,41,10.90
2014,08,09,03,42,10.90
2014,08,09,03,43,10.90
2014,08,09,03,44,10.90
2014,08,09,03,45,10.90
2014,08,09,03,46,10.90
2014,08,09,03,47,10.90
2014,08,09,03,48,10.90
2014,08,09,03,49,10.90
2014,08,09,03,50,10.90
2014,08,09,03,51,10.90
2014,08,09,03,52,10.90
2014,08,09,03,53,10.90
2014,08,09,03,54,10.90
2014,08,09,03,55,10.90
2014,08,09,03,56,10.80
2014,08,09,03,57,10.80
2014,08,09,03,58,10.80
2014,08,09,03,59,10.80
2014,08,09,04,00,10.70
2014,08,09,04,01,10.70
2014,08,09,04,02,10.70
2014,08,09,04,03,10.70
2014,08,09,04,04,10.60
2014,08,09,04,05,10.60
2014,08,09,04,06,10.60
2014,08,09,04,07,10.60
2014,08,09,04,08,10.60
2014,08,09,04,09,10.60
2014,08,09,04,10,10.60
2014,08,09,04,11,10.60
2014,08,09,04,12,10.60
2014,08,09,04,13,10.50
2014,08,09,04,14,10.50
2014,08,09,04,15,10.50
2014,08,09,04,16,10.40
2014,08,09,04,17,10.40
2014,08,09,04,18,10.40
2014,08,09,04,19,10.40
2014,08,09,04,20,10.40
2014,08,09,04,21,10.40
2014,08,09,04,22,10.40
2014,08,09,04,23,10.40
2014,08,09,04,24,10.40
2014,08,09,04,25,10.40
2014,08,09,04,26,10.40
2014,08,09,04,27,10.50
2014,08,09,04,28,10.50
2014,08,09,04,29,10.50
2014,08,09,04,30,10.50
2014,08,09,04,31,10.40
2014,08,09,04,32,10.40
2014,08,09,04,33,10.40
2014,08,09,04,34,10.40
2014,08,09,04,35,10.40
2014,08,09,04,36,10.30
2014,08,09,04,37,10.30
2014,08,09,04,38,10.30
2014,08,09,04,39,10.40
2014,08,09,04,40,10.50
2014,08,09,04,41,10.50
2014,08,09,04,42,10.50
2014,08,09,04,43,10.50
2014,08,09,04,44,10.50
2014,08,09,04,45,10.50
2014,08,09,04,46,10.50
2014,08,09,04,47,10.50
2014,08,09,04,48,10.50
2014,08,09,04,49,10.50
2014,08,09,04,50,10.50
2014,08,09,04,51,10.50
2014,08,09,04,52,10.40
2014,08,09,04,53,10.40
2014,08,09,04,54,10.40
2014,08,09,04,55,10.30
2014,08,09,04,56,10.30
2014,08,09,04,57,10.30
2014,08,09,04,58,10.30
2014,08,09,04,59,10.30
2014,08,09,05,00,10.30
2014,08,09,05,01,10.30
2014,08,09,05,02,10.30
2014,08,09,05,03,10.30
2014,08,09,05,04,10.30
2014,08,09,05,05,10.30
2014,08,09,05,06,10.30
2014,08,09,05,07,10.30
2014,08,09,05,08,10.30
2014,08,09,05,09,10.30
2014,08,09,05,10,10.30
2014,08,09,05,11,10.30
2014,08,09,05,12,10.30
2014,08,09,05,13,10.30
2014,08,09,05,14,10.30
2014,08,09,05,15,10.30
2014,08,09,05,16,10.30
2014,08,09,05,17,10.30
2014,08,09,05,18,10.30
2014,08,09,05,19,10.30
2014,08,09,05,20,10.20
2014,08,09,05,21,10.20
2014,08,09,05,22,10.20
2014,08,09,05,23,10.30
2014,08,09,05,24,10.30
2014,08,09,05,25,10.30
2014,08,09,05,26,10.30
2014,08,09,05,27,10.30
2014,08,09,05,28,10.30
2014,08,09,05,29,10.40
2014,08,09,05,30,10.40
2014,08,09,05,31,10.40
2014,08,09,05,32,10.40
2014,08,09,05,33,10.40
2014,08,09,05,34,10.40
2014,08,09,05,35,10.40
2014,08,09,05,36,10.50
2014,08,09,05,37,10.50
2014,08,09,05,38,10.50
2014,08,09,05,39,10.60
2014,08,09,05,40,10.70
2014,08,09,05,41,10.70
2014,08,09,05,42,10.80
2014,08,09,05,43,10.80
2014,08,09,05,44,10.80
2014,08,09,05,45,10.80
2014,08,09,05,46,10.80
2014,08,09,05,47,10.90
2014,08,09,05,48,10.90
2014,08,09,05,49,10.90
2014,08,09,05,50,11.00
2014,08,09,05,51,11.00
2014,08,09,05,52,11.10
2014,08,09,05,53,11.10
2014,08,09,05,54,11.10
2014,08,09,05,55,11.10
2014,08,09,05,56,11.10
2014,08,09,05,57,11.20
2014,08,09,05,58,11.20
2014,08,09,05,59,11.20
2014,08,09,06,00,11.20
2014,08,09,06,01,11.20
2014,08,09,06,02,11.20
2014,08,09,06,03,11.30
2014,08,09,06,04,11.30
2014,08,09,06,05,11.30
2014,08,09,06,06,11.30
2014,08,09,06,07,11.30
2014,08,09,06,08,11.40
2014,08,09,06,09,11.40
2014,08,09,06,10,11.40
2014,08,09,06,11,11.40
2014,08,09,06,12,11.40
2014,08,09,06,13,11.40
2014,08,09,06,14,11.40
2014,08,09,06,15,11.50
2014,08,09,06,16,11.50
2014,08,09,06,17,11.60
2014,08,09,06,18,11.60
2014,08,09,06,19,11.60
2014,08,09,06,20,11.60
2014,08,09,06,21,11.60
2014,08,09,06,22,11.70
2014,08,09,06,23,11.70
2014,08,09,06,24,11.70
2014,08,09,06,25,11.70
2014,08,09,06,26,11.80
2014,08,09,06,27,11.80
2014,08,09,06,28,11.80
2014,08,09,06,29,11.90
2014,08,09,06,30,11.90
2014,08,09,06,31,11.90
2014,08,09,06,32,11.90
2014,08,09,06,33,11.90
2014,08,09,06,34,11.90
2014,08,09,06,35,11.90
2014,08,09,06,36,11.90
2014,08,09,06,37,11.90
2014,08,09,06,38,11.90
2014,08,09,06,39,11.90
2014,08,09,06,40,11.90
2014,08,09,06,41,11.90
2014,08,09,06,42,11.90
2014,08,09,06,43,11.90
2014,08,09,06,44,11.90
2014,08,09,06,45,11.90
2014,08,09,06,46,11.90
2014,08,09,06,47,11.90
2014,08,09,06,48,11.90
2014,08,09,06,49,11.90
2014,08,09,06,50,11.90
2014,08,09,06,51,12.00
2014,08,09,06,52,12.00
2014,08,09,06,53,12.00
2014,08,09,06,54,12.00
2014,08,09,06,55,12.00
2014,08,09,06,56,12.10
2014,08,09,06,57,12.10
2014,08,09,06,58,12.10
2014,08,09,06,59,12.10
2014,08,09,07,00,12.10
2014,08,09,07,01,12.20
2014,08,09,07,02,12.20
2014,08,09,07,03,12.20
2014,08,09,07,04,12.20
2014,08,09,07,05,12.20
2014,08,09,07,06,12.30
2014,08,09,07,07,12.40
2014,08,09,07,08,12.50
2014,08,09,07,09,12.60
2014,08,09,07,10,12.70
2014,08,09,07,11,12.80
2014,08,09,07,12,12.80
2014,08,09,07,13,12.80
2014,08,09,07,14,12.80
2014,08,09,07,15,12.90
2014,08,09,07,16,12.90
2014,08,09,07,17,12.90
2014,08,09,07,18,13.00
2014,08,09,07,19,13.00
2014,08,09,07,20,13.10
2014,08,09,07,21,13.10
2014,08,09,07,22,13.10
2014,08,09,07,23,13.20
2014,08,09,07,24,13.20
2014,08,09,07,25,13.30
2014,08,09,07,26,13.30
2014,08,09,07,27,13.40
2014,08,09,07,28,13.40
2014,08,09,07,29,13.50
2014,08,09,07,30,13.50
2014,08,09,07,31,13.50
2014,08,09,07,32,13.60
2014,08,09,07,33,13.60
2014,08,09,07,34,13.60
2014,08,09,07,35,13.70
2014,08,09,07,36,13.70
2014,08,09,07,37,13.70
2014,08,09,07,38,13.70
2014,08,09,07,39,13.70
2014,08,09,07,40,13.80
2014,08,09,07,41,13.80
2014,08,09,07,42,13.80
2014,08,09,07,43,13.80
2014,08,09,07,44,13.80
2014,08,09,07,45,13.90
2014,08,09,07,46,13.90
2014,08,09,07,47,13.90
2014,08,09,07,48,13.90
2014,08,09,07,49,13.90
2014,08,09,07,50,14.00
2014,08,09,07,51,14.00
2014,08,09,07,52,14.10
2014,08,09,07,53,14.10
2014,08,09,07,54,14.20
2014,08,09,07,55,14.20
2014,08,09,07,56,14.30
2014,08,09,07,57,14.30
2014,08,09,07,58,14.40
2014,08,09,07,59,14.50
2014,08,09,08,00,14.60
2014,08,09,08,01,14.60
2014,08,09,08,02,14.70
2014,08,09,08,03,14.80
2014,08,09,08,04,14.90
2014,08,09,08,05,15.00
2014,08,09,08,06,15.00
2014,08,09,08,07,15.00
2014,08,09,08,08,15.10
2014,08,09,08,09,15.30
2014,08,09,08,10,15.40
2014,08,09,08,11,15.40
2014,08,09,08,12,15.50
2014,08,09,08,13,15.60
2014,08,09,08,14,15.70
2014,08,09,08,15,15.80
2014,08,09,08,16,15.80
2014,08,09,08,17,15.90
2014,08,09,08,18,16.00
2014,08,09,08,19,16.10
2014,08,09,08,20,16.30
2014,08,09,08,21,16.40
2014,08,09,08,22,16.50
2014,08,09,08,23,16.60
2014,08,09,08,24,16.70
2014,08,09,08,25,16.80
2014,08,09,08,26,16.90
2014,08,09,08,27,17.10
2014,08,09,08,28,17.20
2014,08,09,08,29,17.40
2014,08,09,08,30,17.50
2014,08,09,08,31,17.70
2014,08,09,08,32,17.80
2014,08,09,08,33,17.90
2014,08,09,08,34,18.10
2014,08,09,08,35,18.20
2014,08,09,08,36,18.30
2014,08,09,08,37,18.50
2014,08,09,08,38,18.60
2014,08,09,08,39,18.70
2014,08,09,08,40,18.80
2014,08,09,08,41,18.90
2014,08,09,08,42,19.00
2014,08,09,08,43,19.10
2014,08,09,08,44,19.20
2014,08,09,08,45,19.20
2014,08,09,08,46,19.30
2014,08,09,08,47,19.40
2014,08,09,08,48,19.40
2014,08,09,08,49,19.50
2014,08,09,08,50,19.60
2014,08,09,08,51,19.70
2014,08,09,08,52,19.80
2014,08,09,08,53,19.80
2014,08,09,08,54,19.90
2014,08,09,08,55,20.00
2014,08,09,08,56,20.10
2014,08,09,08,57,20.10
2014,08,09,08,58,20.20
2014,08,09,08,59,20.30
2014,08,09,09,00,20.30
2014,08,09,09,01,20.40
2014,08,09,09,02,20.40
2014,08,09,09,03,20.50
2014,08,09,09,04,20.60
2014,08,09,09,05,20.50
2014,08,09,09,06,20.40
2014,08,09,09,07,20.30
2014,08,09,09,08,20.40
2014,08,09,09,09,20.40
2014,08,09,09,10,20.50
2014,08,09,09,11,20.60
2014,08,09,09,12,20.70
2014,08,09,09,13,20.80
2014,08,09,09,14,20.90
2014,08,09,09,15,21.00
2014,08,09,09,16,21.00
2014,08,09,09,17,20.90
2014,08,09,09,18,20.90
2014,08,09,09,19,21.00
2014,08,09,09,20,21.00
2014,08,09,09,21,21.00
2014,08,09,09,22,21.00
2014,08,09,09,23,21.10
2014,08,09,09,24,21.10
2014,08,09,09,25,21.10
2014,08,09,09,26,21.10
2014,08,09,09,27,21.20
2014,08,09,09,28,21.20
2014,08,09,09,29,21.40
2014,08,09,09,30,21.50
2014,08,09,09,31,21.70
2014,08,09,09,32,21.80
2014,08,09,09,33,21.90
2014,08,09,09,34,22.00
2014,08,09,09,35,22.10
2014,08,09,09,36,22.20
2014,08,09,09,37,22.30
2014,08,09,09,38,22.40
2014,08,09,09,39,22.60
2014,08,09,09,40,22.80
2014,08,09,09,41,22.90
2014,08,09,09,42,23.10
2014,08,09,09,43,23.20
2014,08,09,09,44,23.40
2014,08,09,09,45,23.60
2014,08,09,09,46,23.70
2014,08,09,09,47,23.70
2014,08,09,09,48,23.80
2014,08,09,09,49,23.90
2014,08,09,09,50,24.00
2014,08,09,09,51,24.10
2014,08,09,09,52,24.00
2014,08,09,09,53,24.00
2014,08,09,09,54,23.90
2014,08,09,09,55,24.00
2014,08,09,09,56,24.20
2014,08,09,09,57,24.30
2014,08,09,09,58,24.40
2014,08,09,09,59,24.40
2014,08,09,10,00,24.50
2014,08,09,10,01,24.60
2014,08,09,10,02,24.80
2014,08,09,10,03,24.90
2014,08,09,10,04,25.00
2014,08,09,10,05,25.10
2014,08,09,10,06,25.10
2014,08,09,10,07,25.10
2014,08,09,10,08,25.20
2014,08,09,10,09,25.30
2014,08,09,10,10,25.40
2014,08,09,10,11,25.60
2014,08,09,10,12,25.70
2014,08,09,10,13,25.70
2014,08,09,10,14,25.80
2014,08,09,10,15,25.80
2014,08,09,10,16,25.70
2014,08,09,10,17,25.70
2014,08,09,10,18,25.70
2014,08,09,10,19,25.70
2014,08,09,10,20,25.70
2014,08,09,10,21,25.70
2014,08,09,10,22,25.70
2014,08,09,10,23,25.70
2014,08,09,10,24,25.80
2014,08,09,10,25,25.80
2014,08,09,10,26,25.80
2014,08,09,10,27,25.80
2014,08,09,10,28,25.80
2014,08,09,10,29,25.80
2014,08,09,10,30,25.90
2014,08,09,10,31,26.00
2014,08,09,10,32,26.10
2014,08,09,10,33,26.30
2014,08,09,10,34,26.40
2014,08,09,10,35,26.60
2014,08,09,10,36,26.70
2014,08,09,10,37,26.80
2014,08,09,10,38,27.00
2014,08,09,10,39,27.10
2014,08,09,10,40,27.20
2014,08,09,10,41,27.20
2014,08,09,10,42,27.20
2014,08,09,10,43,27.30
2014,08,09,10,44,27.30
2014,08,09,10,45,27.30
2014,08,09,10,46,27.40
2014,08,09,10,47,27.40
2014,08,09,10,48,27.40
2014,08,09,10,49,27.50
2014,08,09,10,50,27.50
2014,08,09,10,51,27.60
2014,08,09,10,52,27.80
2014,08,09,10,53,27.90
2014,08,09,10,54,27.90
2014,08,09,10,55,28.00
2014,08,09,10,56,28.00
2014,08,09,10,57,28.10
2014,08,09,10,58,28.10
2014,08,09,10,59,28.20
2014,08,09,11,00,28.20
2014,08,09,11,01,28.20
2014,08,09,11,02,28.30
2014,08,09,11,03,28.40
2014,08,09,11,04,28.40
2014,08,09,11,05,28.40
2014,08,09,11,06,28.50
2014,08,09,11,07,28.50
2014,08,09,11,08,28.40
2014,08,09,11,09,28.20
2014,08,09,11,10,27.90
2014,08,09,11,11,27.60
2014,08,09,11,12,27.50
2014,08,09,11,13,27.30
2014,08,09,11,14,27.30
2014,08,09,11,15,27.30
2014,08,09,11,16,27.30
2014,08,09,11,17,27.50
2014,08,09,11,18,27.60
2014,08,09,11,19,27.80
2014,08,09,11,20,28.00
2014,08,09,11,21,28.20
2014,08,09,11,22,28.40
2014,08,09,11,23,28.60
2014,08,09,11,24,28.80
2014,08,09,11,25,29.00
2014,08,09,11,26,29.30
2014,08,09,11,27,29.40
2014,08,09,11,28,29.50
2014,08,09,11,29,29.50
2014,08,09,11,30,29.60
2014,08,09,11,31,29.50
2014,08,09,11,32,29.40
2014,08,09,11,33,29.30
2014,08,09,11,34,29.20
2014,08,09,11,35,29.00
2014,08,09,11,36,29.00
2014,08,09,11,37,29.00
2014,08,09,11,38,29.10
2014,08,09,11,39,29.30
2014,08,09,11,40,29.40
2014,08,09,11,41,29.50
2014,08,09,11,42,29.60
2014,08,09,11,43,29.70
2014,08,09,11,44,29.70
2014,08,09,11,45,29.80
2014,08,09,11,46,29.80
2014,08,09,11,47,30.00
2014,08,09,11,48,30.20
2014,08,09,11,49,30.30
2014,08,09,11,50,30.30
2014,08,09,11,51,30.30
2014,08,09,11,52,30.40
2014,08,09,11,53,30.40
2014,08,09,11,54,30.40
2014,08,09,11,55,30.50
2014,08,09,11,56,30.70
2014,08,09,11,57,30.80
2014,08,09,11,58,31.00
2014,08,09,11,59,31.10
2014,08,09,12,00,31.20
2014,08,09,12,01,31.30
2014,08,09,12,02,31.20
2014,08,09,12,03,31.10
2014,08,09,12,04,31.00
2014,08,09,12,05,31.00
2014,08,09,12,06,31.10
2014,08,09,12,07,31.10
2014,08,09,12,08,31.10
2014,08,09,12,09,31.20
2014,08,09,12,10,31.20
2014,08,09,12,11,31.10
2014,08,09,12,12,30.80
2014,08,09,12,13,30.50
2014,08,09,12,14,30.20
2014,08,09,12,15,29.90
2014,08,09,12,16,29.80
2014,08,09,12,17,29.80
2014,08,09,12,18,29.80
2014,08,09,12,19,29.80
2014,08,09,12,20,29.80
2014,08,09,12,21,29.80
2014,08,09,12,22,29.80
2014,08,09,12,23,29.80
2014,08,09,12,24,29.80
2014,08,09,12,25,29.80
2014,08,09,12,26,29.70
2014,08,09,12,27,29.50
2014,08,09,12,28,29.50
2014,08,09,12,29,29.40
2014,08,09,12,30,29.10
2014,08,09,12,31,28.80
2014,08,09,12,32,28.80
2014,08,09,12,33,28.70
2014,08,09,12,34,28.50
2014,08,09,12,35,28.30
2014,08,09,12,36,28.30
2014,08,09,12,37,28.50
2014,08,09,12,38,28.70
2014,08,09,12,39,28.90
2014,08,09,12,40,29.10
2014,08,09,12,41,29.40
2014,08,09,12,42,29.60
2014,08,09,12,43,29.80
2014,08,09,12,44,30.00
2014,08,09,12,45,30.30
2014,08,09,12,46,30.40
2014,08,09,12,47,30.50
2014,08,09,12,48,30.40
2014,08,09,12,49,30.40
2014,08,09,12,50,30.30
2014,08,09,12,51,30.30
2014,08,09,12,52,30.40
2014,08,09,12,53,30.40
2014,08,09,12,54,30.50
2014,08,09,12,55,30.60
2014,08,09,12,56,30.60
2014,08,09,12,57,30.70
2014,08,09,12,58,30.70
2014,08,09,12,59,30.80
2014,08,09,13,00,30.90
2014,08,09,13,01,30.90
2014,08,09,13,02,31.00
2014,08,09,13,03,31.00
2014,08,09,13,04,31.00
2014,08,09,13,05,31.00
2014,08,09,13,06,30.90
2014,08,09,13,07,30.90
2014,08,09,13,08,30.80
2014,08,09,13,09,30.80
2014,08,09,13,10,30.70
2014,08,09,13,11,30.60
2014,08,09,13,12,30.60
2014,08,09,13,13,30.40
2014,08,09,13,14,30.40
2014,08,09,13,15,30.40
2014,08,09,13,16,30.40
2014,08,09,13,17,30.40
2014,08,09,13,18,30.60
2014,08,09,13,19,30.60
2014,08,09,13,20,30.60
2014,08,09,13,21,30.60
2014,08,09,13,22,30.80
2014,08,09,13,23,30.80
2014,08,09,13,24,30.90
2014,08,09,13,25,30.90
2014,08,09,13,26,31.00
2014,08,09,13,27,31.00
2014,08,09,13,28,31.10
2014,08,09,13,29,31.30
2014,08,09,13,30,31.40
2014,08,09,13,31,31.40
2014,08,09,13,32,31.50
2014,08,09,13,33,31.60
2014,08,09,13,34,31.70
2014,08,09,13,35,31.80
2014,08,09,13,36,31.80
2014,08,09,13,37,31.90
2014,08,09,13,38,32.00
2014,08,09,13,39,32.10
2014,08,09,13,40,32.00
2014,08,09,13,41,31.90
2014,08,09,13,42,31.80
2014,08,09,13,43,31.70
2014,08,09,13,44,31.60
2014,08,09,13,45,31.50
2014,08,09,13,46,31.60
2014,08,09,13,47,31.70
2014,08,09,13,48,31.80
2014,08,09,13,49,31.90
2014,08,09,13,50,32.10
2014,08,09,13,51,32.20
2014,08,09,13,52,32.40
2014,08,09,13,53,32.50
2014,08,09,13,54,32.60
2014,08,09,13,55,32.60
2014,08,09,13,56,32.60
2014,08,09,13,57,32.60
2014,08,09,13,58,32.60
2014,08,09,13,59,32.60
2014,08,09,14,00,32.70
2014,08,09,14,01,32.70
2014,08,09,14,02,32.80
2014,08,09,14,03,32.80
2014,08,09,14,04,32.70
2014,08,09,14,05,32.70
2014,08,09,14,06,32.80
2014,08,09,14,07,32.80
2014,08,09,14,08,32.80
2014,08,09,14,09,32.80
2014,08,09,14,10,32.80
2014,08,09,14,11,32.80
2014,08,09,14,12,32.80
2014,08,09,14,13,32.80
2014,08,09,14,14,32.70
2014,08,09,14,15,32.60
2014,08,09,14,16,32.60
2014,08,09,14,17,32.60
2014,08,09,14,18,32.60
2014,08,09,14,19,32.60
2014,08,09,14,20,32.60
2014,08,09,14,21,32.70
2014,08,09,14,22,32.60
2014,08,09,14,23,32.70
2014,08,09,14,24,32.80
2014,08,09,14,25,32.80
2014,08,09,14,26,32.70
2014,08,09,14,27,32.60
2014,08,09,14,28,32.50
2014,08,09,14,29,32.40
2014,08,09,14,30,32.30
2014,08,09,14,31,32.10
2014,08,09,14,32,32.10
2014,08,09,14,33,32.00
2014,08,09,14,34,31.90
2014,08,09,14,35,31.90
2014,08,09,14,36,31.90
2014,08,09,14,37,32.00
2014,08,09,14,38,32.10
2014,08,09,14,39,32.20
2014,08,09,14,40,32.00
2014,08,09,14,41,31.80
2014,08,09,14,42,31.70
2014,08,09,14,43,31.80
2014,08,09,14,44,31.80
2014,08,09,14,45,31.80
2014,08,09,14,46,31.80
2014,08,09,14,47,31.80
2014,08,09,14,48,31.90
2014,08,09,14,49,31.90
2014,08,09,14,50,31.90
2014,08,09,14,51,31.90
2014,08,09,14,52,32.10
2014,08,09,14,53,32.20
2014,08,09,14,54,32.20
2014,08,09,14,55,32.20
2014,08,09,14,56,32.30
2014,08,09,14,57,32.40
2014,08,09,14,58,32.40
2014,08,09,14,59,32.50
2014,08,09,15,00,32.60
2014,08,09,15,01,32.60
2014,08,09,15,02,32.70
2014,08,09,15,03,32.70
2014,08,09,15,04,32.70
2014,08,09,15,05,32.70
2014,08,09,15,06,32.50
2014,08,09,15,07,32.40
2014,08,09,15,08,32.30
2014,08,09,15,09,32.20
2014,08,09,15,10,32.10
2014,08,09,15,11,32.00
2014,08,09,15,12,31.80
2014,08,09,15,13,31.70
2014,08,09,15,14,31.70
2014,08,09,15,15,31.60
2014,08,09,15,16,31.60
2014,08,09,15,17,31.70
2014,08,09,15,18,31.80
2014,08,09,15,19,31.90
2014,08,09,15,20,32.10
2014,08,09,15,21,32.20
2014,08,09,15,22,32.20
2014,08,09,15,23,32.10
2014,08,09,15,24,32.10
2014,08,09,15,25,32.10
2014,08,09,15,26,32.00
2014,08,09,15,27,32.10
2014,08,09,15,28,32.10
2014,08,09,15,29,32.10
2014,08,09,15,30,32.10
2014,08,09,15,31,32.10
2014,08,09,15,32,32.00
2014,08,09,15,33,32.00
2014,08,09,15,34,32.00
2014,08,09,15,35,31.90
2014,08,09,15,36,31.70
2014,08,09,15,37,31.50
2014,08,09,15,38,31.20
2014,08,09,15,39,31.00
2014,08,09,15,40,30.80
2014,08,09,15,41,30.70
2014,08,09,15,42,30.60
2014,08,09,15,43,30.60
2014,08,09,15,44,30.60
2014,08,09,15,45,30.60
2014,08,09,15,46,30.50
2014,08,09,15,47,30.50
2014,08,09,15,48,30.40
2014,08,09,15,49,30.50
2014,08,09,15,50,30.50
2014,08,09,15,51,30.50
2014,08,09,15,52,30.60
2014,08,09,15,53,30.60
2014,08,09,15,54,30.60
2014,08,09,15,55,30.50
2014,08,09,15,56,30.50
2014,08,09,15,57,30.50
2014,08,09,15,58,30.60
2014,08,09,15,59,30.60
2014,08,09,16,00,30.60
2014,08,09,16,01,30.70
2014,08,09,16,02,30.80
2014,08,09,16,03,30.80
2014,08,09,16,04,30.90
2014,08,09,16,05,31.00
2014,08,09,16,06,31.10
2014,08,09,16,07,31.10
2014,08,09,16,08,31.10
2014,08,09,16,09,31.10
2014,08,09,16,10,31.20
2014,08,09,16,11,31.20
2014,08,09,16,12,31.40
2014,08,09,16,13,31.50
2014,08,09,16,14,31.60
2014,08,09,16,15,31.70
2014,08,09,16,16,31.70
2014,08,09,16,17,31.70
2014,08,09,16,18,31.70
2014,08,09,16,19,31.70
2014,08,09,16,20,31.60
2014,08,09,16,21,31.50
2014,08,09,16,22,31.50
2014,08,09,16,23,31.40
2014,08,09,16,24,31.30
2014,08,09,16,25,31.30
2014,08,09,16,26,31.30
2014,08,09,16,27,31.20
2014,08,09,16,28,31.20
2014,08,09,16,29,31.10
2014,08,09,16,30,31.10
2014,08,09,16,31,30.90
2014,08,09,16,32,30.70
2014,08,09,16,33,30.60
2014,08,09,16,34,30.50
2014,08,09,16,35,30.40
2014,08,09,16,36,30.30
2014,08,09,16,37,30.20
2014,08,09,16,38,30.10
2014,08,09,16,39,30.10
2014,08,09,16,40,30.10
2014,08,09,16,41,30.10
2014,08,09,16,42,30.20
2014,08,09,16,43,30.20
2014,08,09,16,44,30.10
2014,08,09,16,45,30.00
2014,08,09,16,46,29.90
2014,08,09,16,47,29.90
2014,08,09,16,48,29.90
2014,08,09,16,49,29.90
2014,08,09,16,50,30.00
2014,08,09,16,51,30.00
2014,08,09,16,52,30.00
2014,08,09,16,53,29.90
2014,08,09,16,54,29.90
2014,08,09,16,55,29.70
2014,08,09,16,56,29.50
2014,08,09,16,57,29.20
2014,08,09,16,58,29.00
2014,08,09,16,59,28.80
2014,08,09,17,00,28.70
2014,08,09,17,01,28.70
2014,08,09,17,02,28.70
2014,08,09,17,03,28.70
2014,08,09,17,04,28.80
2014,08,09,17,05,28.90
2014,08,09,17,06,28.90
2014,08,09,17,07,28.80
2014,08,09,17,08,28.80
2014,08,09,17,09,28.70
2014,08,09,17,10,28.70
2014,08,09,17,11,28.50
2014,08,09,17,12,28.50
2014,08,09,17,13,28.40
2014,08,09,17,14,28.40
2014,08,09,17,15,28.40
2014,08,09,17,16,28.40
2014,08,09,17,17,28.30
2014,08,09,17,18,28.20
2014,08,09,17,19,28.20